Find DAPP 3526

NORAD ID: 4953 Int'l Des: 1971-012 Owner: SAMSO Country: US operational
LEOCIRCULARRETROGRADESSO

リアルタイム位置

3D地球を読み込み中...

DAPP 3526について

説明を読み込み中...

次回通過

Passes for default location (London). Set your location on the main map for personalized predictions.

高度履歴

Loading altitude history...

軌道要素

1 04953U 71012A 26120.60619284 .00000247 00000-0 87684-4 0 9999
2 04953 98.4889 350.5229 0036624 208.5761 151.3421 14.42148017891923
Epoch: Apr 30, 2026 • Age: 10 hours

現在のステータス

高度 775.4 km
速度 7.46 km/s
衛星直下点 -58.97°S, 142.34°E
タイプ other

Most Searched